This demonstration page uses our WeatherBlox Daily Observations layout. Learn more.

Left ArrowRight Arrow

44.89941, -97.11507

Hourly Observations for July 11, 2016

Temp ( °F °C ) Dew Point ( °F °C ) Humidity (%) Winds ( mph kmh ) Pressure ( in mb ) Visibility ( mi km ) Precip ( " mm )
12:53 am 00:53 Mostly Clear 77 25 73 22.8 88 88 S 16 26 29.58 1002 10 16 0.00 0.00
1:53 am 01:53 Clear 77 25 73 22.8 88 88 S 17 28 29.57 1001 10 16 0.00 0.00
2:53 am 02:53 Clear 77 25 72 22.2 85 85 SSE 21 33 29.56 1001 10 16 0.00 0.00
3:34 am 03:34 Mostly Cloudy 74 23.3 69 20.6 85 85 NE 13 20 29.56 1001 10 16 0.00 0.00
3:53 am 03:53 Cloudy 69 20.6 64 17.8 84 84 NE 18 30 29.63 1004 10 16 0.00 0.00
4:00 am 04:00 Cloudy with Nearby Thunderstorms 67 19.4 62 16.7 84 84 NNE 23 37 29.62 1003 10 16 0.00 0.00
4:23 am 04:23 Cloudy with Thunderstorms 66 18.9 61 16.1 84 84 NE 14 22 29.62 1003 10 16 0.00 0.00
4:44 am 04:44 Cloudy with Nearby Thunderstorms 67 19.4 62 16.7 84 84 ENE 16 26 29.62 1003 10 16 0.00 0.00
4:53 am 04:53 Cloudy with Thunderstorms 66 18.9 62 16.7 87 87 E 13 20 29.63 1004 10 16 0.00 0.00
5:13 am 05:13 Cloudy with Nearby Thunderstorms 65 18.3 62 16.7 90 90 ENE 17 28 29.62 1003 10 16 0.00 0.00
5:46 am 05:46 Cloudy 65 18.3 62 16.7 90 90 E 9 15 29.59 1002 10 16 0.00 0.00
5:53 am 05:53 Cloudy 65 18.3 62 16.7 90 90 E 13 20 29.63 1003 10 16 0.00 0.00
6:00 am 06:00 Cloudy with Nearby Thunderstorms 66 18.9 62 16.7 87 87 ENE 10 17 29.59 1002 10 16 0.00 0.00
6:11 am 06:11 Cloudy 66 18.9 61 16.1 84 84 ENE 14 22 29.59 1002 10 16 0.00 0.00
6:53 am 06:53 Cloudy 66 18.9 62 16.7 87 87 ENE 13 20 29.63 1003 10 16 0.00 0.00
7:22 am 07:22 Cloudy with Light Rain 65 18.3 62 16.7 90 90 NNE 18 30 29.65 1004 10 16 0.00 0.03
7:30 am 07:30 Cloudy with Rain 65 18.3 62 16.7 90 90 NE 23 37 29.65 1004 6 10 0.03 0.76
7:49 am 07:49 Cloudy with Light Rain 64 18 63 17 94 94 NE 17 28 29.65 1004 7 11 0.06 1.52
7:53 am 07:53 Cloudy with Rain 65 18.3 62 16.7 90 90 NE 15 24 29.67 1005 6 10 0.07 1.78
8:19 am 08:19 Cloudy with Nearby Thunderstorms 65 18.3 62 16.7 90 90 ENE 14 22 29.62 1003 8 13 0.02 0.51
8:53 am 08:53 Cloudy 65 18.3 63 17.2 93 93 ENE 13 20 29.65 1004 10 16 0.04 1.02
9:05 am 09:05 Cloudy 65 18.3 63 17.2 93 93 E 14 22 29.62 1003 10 16 0.00 0.00
9:53 am 09:53 Cloudy 68 20 63 17.2 84 84 E 18 30 29.62 1003 10 16 0.00 0.00
10:53 am 10:53 Cloudy 68 20 63 17.2 84 84 E 17 28 29.61 1003 10 16 0.00 0.00
11:53 am 11:53 Cloudy 71 21.7 64 17.8 79 79 E 18 30 29.60 1002 10 16 0.00 0.00
12:30 pm 12:30 Cloudy 69 20.6 64 17.8 84 84 E 17 28 29.56 1001 10 16 0.00 0.00
12:53 pm 12:53 Cloudy 69 20.6 65 18.3 87 87 ESE 14 22 29.58 1002 10 16 0.00 0.00
1:53 pm 13:53 Cloudy 71 21.7 66 18.9 84 84 E 14 22 29.55 1001 10 16 0.00 0.00
2:53 pm 14:53 Cloudy 75 23.9 68 20 79 79 ESE 12 19 29.52 1000 10 16 0.00 0.03
3:22 pm 15:22 Mostly Cloudy 78 25.6 71 21.7 79 79 SE 14 22 29.47 998 10 16 0.00 0.00
3:32 pm 15:32 Mostly Cloudy 80 26.7 71 21.7 74 74 SSE 15 24 29.44 997 10 16 0.00 0.00
3:41 pm 15:41 Mostly Cloudy 78 25.6 71 21.7 79 79 SE 9 15 29.47 998 10 16 0.00 0.00
3:53 pm 15:53 Cloudy 79 26.1 71 21.7 77 77 SSE 12 19 29.52 1000 10 16 0.00 0.00
4:17 pm 16:17 Cloudy 80 26.7 72 22.2 76 76 SSE 9 15 29.44 997 10 16 0.00 0.00
4:51 pm 16:51 Cloudy 81 27 73 23 79 79 SSE 7 11 29.44 997 10 16 0.00 0.00
4:53 pm 16:53 Cloudy 81 27.2 74 23.3 79 79 S 7 11 29.52 1000 10 16 0.00 0.00
5:16 pm 17:16 Mostly Cloudy 81 27.2 74 23.3 79 79 SSE 7 11 29.44 997 10 16 0.00 0.00
5:53 pm 17:53 Sunny 84 28.9 74 23.3 72 72 S 9 15 29.50 999 10 16 0.00 0.00
6:53 pm 18:53 Cloudy 83 28.3 72 22.2 70 70 SW 13 20 29.52 1000 10 16 0.00 0.00
7:53 pm 19:53 Sunny 83 28.3 73 22.8 72 72 SW 9 15 29.51 999 10 16 0.00 0.00
8:53 pm 20:53 Sunny 78 25.6 71 21.7 79 79 SW 10 17 29.52 1000 10 16 0.00 0.00
9:53 pm 21:53 Clear 76 24.4 59 15 56 56 WNW 18 30 29.59 1002 10 16 0.00 0.00
10:53 pm 22:53 Clear 71 21.7 62 16.7 73 73 WNW 10 17 29.62 1003 10 16 0.00 0.00
11:53 pm 23:53 Clear 68 20 62 16.7 81 81 NW 16 26 29.65 1004 10 16 0.00 0.00

Powered by AerisWeather